User: anonymous
Location: Columbus
(29.5618°N, 96.6770°W)
Time: 02:23:50
(UTC-05:00)
Language:

Cosmos 2056 Rocket - Orbit

View from above orbital plane
View from above orbital plane
View from above satellite
View from above satellite

Ground track
Ground track

The orbit data is extracted from the following two-line orbital elements,

1 20433U 90004B   14211.79621025  .00000092  00000-0  40671-4 0  7795
2 20433 074.0370 127.7803 0040632 154.9829 262.0437 14.35649995284155
Epoch (UTC): 30 July 2014 19:06:32
Eccentricity: 0.0040632
inclination: 74.0370°
perigee height: 744 km
apogee height: 802 km
right ascension of ascending node: 127.7803°
argument of perigee: 154.9829°
revolutions per day: 14.35649995
mean anomaly at epoch: 262.0437°
orbit number at epoch: 28415

The dashed part of the orbit path shows where the satellite is in the earth's shadow,  

DLR